Location: Newark
(46.9000°N, 28.3500°E)
Time: 20:50:50
(UTC+00:00)

Explorer 7 - Pass Details

Date: 02 September 2019
Orbit: 485 x 680 km, 50.3° (Epoch: 14 October)

Event Time Altitude Azimuth Distance (km) Brightness Sun altitude
Rises 02:03:56 0° 183° (S) 2,999 - -14.0°
Exits shadow 02:04:11 - 182° (S) 2,924 10.2 -14.0°
Reaches altitude 10° 02:07:34 10° 155° (SSE) 2,107 9.8 -13.5°
Maximum altitude 02:09:40 13° 130° (SE) 1,933 9.9 -13.2°
Drops below altitude 10° 02:11:46 10° 104° (ESE) 2,116 10.5 -12.8°
Sets 02:15:26 0° 77° (ENE) 3,027 12.4 -12.3°
